Weather History for KNFL - June, 2014

Change the Weather History Date:

Wednesday, June 4, 2014

  Actual Average Record
Temperature  
Mean Temperature 69 °F -  
Max Temperature 88 °F 78 °F 97 °F (1960)
Min Temperature 50 °F 46 °F 33 °F (1962)
Cooling Degree Days 4    
Growing Degree Days 19 (Base 50)    
Moisture  
Dew Point 28 °F    
Average Humidity 25    
Maximum Humidity 54    
Minimum Humidity 8    
Precipitation  
Precipitation 0.00 in - - ()
Sea Level Pressure  
Sea Level Pressure 29.89 in    
Wind  
Wind Speed 5 mph (North)    
Max Wind Speed 9 mph    
Max Gust Speed 16 mph    
Visibility 10 miles    
Events      
Averages and records for this station are not official NWS values.
T = Trace of Precipitation, MM = Missing Value Source: NWS Daily Summary

Daily Weather History Graph

Daily Weather History Graph

Search for Another Location

Airport or City:

Trip Planner

Search our weather history database for the weather conditions in past years. The results will help you decide how hot, cold, wet, or windy it might be!

Date:

Astronomy

Jun. 04, 2014 Rise Set
Actual Time 5:28 AM PDT 8:17 PM PDT
Civil Twilight 4:56 AM PDT 8:49 PM PDT
Nautical Twilight 4:16 AM PDT 9:30 PM PDT
Astronomical Twilight 3:30 AM PDT 10:16 PM PDT
Moon 11:51 AM PDT (6/4) 12:20 AM PDT (6/4)
Length of Visible Light 15h 53m
Length of Day
14h 49m
Waxing Crescent, 40% of the Moon is Illuminated
Jun 4
Waxing Crescent
Jun 5
First Quarter
Jun 12
Full
Jun 19
Last Quarter
Jun 27
New

Hourly Weather History & Observations

Time (PDT) Temp. Dew Point Humidity Pressure Visibility Wind Dir Wind Speed Gust Speed Precip Events Conditions
12:56 AM 57.9 °F 25.0 °F 28% 29.87 in 10.0 mi SE 4.6 mph - N/A   Clear
1:56 AM 57.0 °F 28.9 °F 34% 29.88 in 10.0 mi WSW 4.6 mph - N/A   Clear
2:56 AM 55.9 °F 30.9 °F 39% 29.88 in 10.0 mi NW 8.1 mph - N/A   Clear
3:56 AM 55.0 °F 30.9 °F 40% 29.89 in 10.0 mi SSE 5.8 mph - N/A   Clear
4:56 AM 53.1 °F 33.1 °F 47% 29.89 in 10.0 mi West 4.6 mph - N/A   Clear
5:56 AM 50.0 °F 34.0 °F 54% 29.90 in 10.0 mi South 5.8 mph - N/A   Clear
6:16 AM 53.1 °F 36.0 °F 52% 29.99 in 10.0 mi South 4.6 mph - N/A   Partly Cloudy
6:56 AM 57.0 °F 36.0 °F 45% 29.91 in 10.0 mi SSE 3.5 mph - N/A   Clear
7:56 AM 66.0 °F 34.0 °F 30% 29.92 in 10.0 mi Calm Calm - N/A   Clear
8:56 AM 71.1 °F 36.0 °F 28% 29.93 in 10.0 mi Variable 5.8 mph - N/A   Clear
9:56 AM 75.9 °F 32.0 °F 20% 29.93 in 10.0 mi North 9.2 mph 16.1 mph N/A   Clear
10:56 AM 78.1 °F 32.0 °F 19% 29.92 in 10.0 mi NW 8.1 mph - N/A   Partly Cloudy
11:56 AM 82.0 °F 30.9 °F 16% 29.92 in 10.0 mi North 9.2 mph - N/A   Partly Cloudy
12:56 PM 84.0 °F 30.0 °F 14% 29.90 in 10.0 mi Variable 5.8 mph - N/A   Partly Cloudy
1:56 PM 84.9 °F 26.1 °F 12% 29.89 in 10.0 mi Variable 3.5 mph - N/A   Partly Cloudy
2:56 PM 86.0 °F 26.1 °F 11% 29.87 in 10.0 mi Variable 3.5 mph - N/A   Partly Cloudy
3:56 PM 86.0 °F 21.9 °F 10% 29.87 in 10.0 mi Variable 6.9 mph - N/A   Partly Cloudy
4:56 PM 88.0 °F 21.0 °F 9% 29.86 in 10.0 mi WNW 6.9 mph - N/A   Partly Cloudy
5:56 PM 87.1 °F 19.0 °F 8% 29.84 in 10.0 mi North 6.9 mph - N/A   Partly Cloudy
6:56 PM 84.9 °F 19.9 °F 9% 29.84 in 10.0 mi Calm Calm - N/A   Partly Cloudy
7:56 PM 82.0 °F 25.0 °F 12% 29.85 in 10.0 mi North 5.8 mph - N/A   Partly Cloudy
8:56 PM 71.1 °F 26.1 °F 19% 29.85 in 10.0 mi North 8.1 mph - N/A   Partly Cloudy
9:56 PM 64.9 °F 26.1 °F 23% 29.87 in 10.0 mi North 9.2 mph - N/A   Clear
10:56 PM 64.9 °F 24.1 °F 21% 29.88 in 10.0 mi NNE 5.8 mph - N/A   Clear
11:56 PM 60.1 °F 26.1 °F 27% 29.87 in 10.0 mi NNE 5.8 mph - N/A   Clear